Wind_Speed
6 7 8 10 10 11 13 15 16 18 20 21 23 24 25 26 27 29 30 30 31 33 35 37 41 45 47 48 47 45 43 40 37 33 27 22 17 13 11 10 10 11 13 14 15 16 17 17 17 16 16 16 16 17 19 20 20 21 22 24 27 32 36 39 42 44 45 41 35 31 29 29 29 27 23 19 26 33 32 32 32 33 35 35 35 35 36 36
7 8 9 10 11 12 13 15 17 19 20 22 24 25 26 27 28 29 30 31 32 33 34 37 40 44 47 49 48 45 43 40 37 34 29 23 19 14 11 11 11 12 13 15 15 17 17 18 17 17 17 17 18 18 19 21 22 22 23 25 28 32 36 39 42 45 46 44 37 32 30 30 31 31 28 25 27 33 34 33 34 35 37 38 38 38 39 39
8 9 10 11 12 13 14 15 18 20 21 22 24 26 27 28 29 30 31 31 32 33 34 37 39 43 46 49 49 46 43 40 37 35 31 25 20 16 13 12 12 14 15 16 17 18 19 19 19 19 19 20 20 20 20 21 22 24 25 27 29 32 37 40 42 45 47 46 40 33 30 29 30 32 35 32 31 34 36 36 37 38 38 39 39 40 41 41
10 11 11 12 13 14 15 16 18 20 22 23 24 26 28 28 29 30 31 32 32 33 34 36 39 42 45 47 48 45 42 40 36 34 32 27 22 18 15 14 14 15 16 17 18 19 21 22 22 22 22 22 23 23 22 22 23 25 26 28 30 34 38 41 43 45 47 47 42 35 30 29 29 32 38 36 33 35 38 39 42 43 42 41 40 42 43 43
11 12 13 13 14 15 16 17 19 21 23 24 25 26 28 28 29 30 31 32 33 34 34 36 38 41 44 46 47 45 42 40 37 33 31 28 24 21 18 16 16 16 18 19 20 21 22 23 24 24 24 24 24 25 24 24 24 25 27 30 32 35 39 42 44 46 47 47 44 36 31 31 28 31 38 37 36 38 41 44 46 46 45 44 44 45 45 45
13 14 14 15 16 17 17 18 20 22 24 25 26 26 27 28 29 30 32 33 34 34 35 36 38 41 43 45 46 46 44 41 39 35 31 27 25 23 20 18 17 17 18 20 21 22 23 24 25 25 25 24 25 26 26 25 25 26 28 31 34 37 40 43 45 47 48 47 45 38 33 33 30 32 38 38 37 40 44 47 48 48 47 46 47 47 47 46
14 15 16 16 17 18 19 19 21 23 24 26 27 27 28 28 29 31 32 34 34 35 35 36 38 41 43 45 46 46 45 43 41 38 35 30 26 24 22 20 19 19 19 20 22 23 23 24 24 25 25 25 26 26 27 27 27 29 30 33 36 39 42 45 46 47 48 47 46 40 35 34 35 37 40 39 39 43 46 49 51 50 49 48 48 47 47 47
15 16 17 18 19 20 20 21 22 23 25 26 27 28 28 29 30 31 33 34 35 35 36 37 39 41 44 46 46 46 45 44 42 40 37 34 30 26 24 23 21 21 21 21 22 23 23 24 24 24 25 25 26 27 28 29 30 31 33 35 38 41 43 45 46 47 48 47 45 42 38 35 37 41 41 40 42 45 48 52 53 52 50 49 48 48 48 48
16 17 18 19 20 21 21 22 23 24 26 27 28 29 29 30 30 31 33 35 36 36 37 38 40 42 44 46 47 46 45 43 42 40 39 37 34 30 28 27 24 22 22 22 22 23 23 24 24 25 25 26 27 28 29 30 32 34 35 37 40 42 44 45 46 47 47 46 45 44 40 36 38 41 40 41 44 46 49 53 54 52 50 49 49 49 49 50
17 18 19 20 21 22 22 23 24 25 27 28 29 29 30 31 31 32 33 35 36 37 38 40 41 43 46 48 48 47 44 42 40 39 39 38 36 34 33 31 29 26 25 24 23 23 24 24 25 25 26 26 28 29 30 32 34 36 37 39 40 42 43 45 46 47 46 46 45 45 41 37 40 41 39 43 47 48 52 55 54 52 50 50 51 52 52 53
18 19 20 21 21 22 23 24 25 26 28 29 30 30 31 31 32 32 33 35 37 38 40 41 43 45 47 49 49 47 44 40 38 37 37 36 36 36 35 34 32 30 28 27 26 26 26 26 26 27 28 28 29 31 32 34 35 37 38 39 40 41 43 45 46 47 46 46 45 45 42 38 41 44 42 46 51 52 55 57 55 54 53 52 53 54 54 55
20 21 21 22 22 23 24 25 26 27 28 30 31 31 32 32 33 33 33 35 37 39 40 42 44 46 48 50 50 48 44 39 36 35 34 34 35 35 36 35 34 32 31 30 29 29 28 28 28 29 29 31 32 33 34 35 36 38 38 39 41 42 44 46 46 46 47 47 46 46 46 41 42 46 48 52 55 56 59 59 57 56 54 54 54 55 56 56
22 22 23 23 24 24 25 26 26 28 29 30 31 32 33 33 33 34 34 36 37 39 41 43 45 47 49 50 50 48 43 38 34 33 33 32 33 33 33 33 33 32 32 32 31 31 31 30 30 30 31 33 34 35 36 36 37 39 39 40 43 43 43 45 46 47 48 48 46 47 48 44 42 45 51 56 58 60 62 61 58 56 54 54 55 56 57 57
24 24 24 24 25 25 26 27 27 28 29 30 31 32 33 34 35 34 35 36 37 39 41 43 46 48 49 49 49 46 41 36 34 32 32 32 31 31 31 31 31 31 31 32 32 32 32 32 31 32 33 33 34 36 37 38 38 39 41 41 44 44 43 45 46 47 48 48 46 48 49 45 42 44 50 57 60 62 63 61 58 56 54 55 57 58 58 58
25 25 25 25 26 26 27 28 29 29 30 31 32 33 33 35 35 36 36 37 38 40 42 44 46 48 49 48 47 44 40 37 34 32 32 31 31 31 31 30 30 30 31 31 32 32 33 33 33 33 34 34 35 37 38 39 39 41 43 43 44 44 43 44 45 47 48 48 46 48 49 47 43 45 52 57 61 63 64 61 58 56 57 58 58 59 60 60
27 26 26 26 27 28 28 29 30 31 31 32 32 33 34 34 35 36 37 38 39 40 42 44 46 47 48 47 45 42 39 36 35 33 33 32 32 32 31 31 31 31 31 31 32 33 34 33 34 35 36 36 37 38 39 40 41 42 44 45 45 45 44 43 45 46 47 48 47 47 48 47 44 47 53 58 60 62 62 61 59 58 60 60 61 62 62 62
28 28 28 28 29 29 30 31 32 32 32 33 33 34 35 35 36 37 38 39 40 41 43 44 46 47 47 46 44 40 37 36 36 35 35 34 33 32 32 32 32 31 32 32 33 34 35 35 36 37 38 39 40 41 42 43 44 44 45 46 46 45 45 44 45 47 47 49 49 48 50 49 46 49 55 59 61 61 59 59 61 62 63 64 65 65 65 65
30 30 29 29 30 31 32 32 33 34 34 34 34 34 34 35 36 36 38 40 40 41 42 44 45 46 47 45 42 37 36 35 36 37 37 36 35 34 34 34 33 33 33 33 34 35 37 38 39 40 41 42 43 44 45 46 46 47 47 47 47 46 46 46 47 49 50 52 51 50 52 52 49 52 57 59 61 61 58 59 63 66 67 68 69 69 68 66
32 31 31 31 31 32 33 34 35 35 35 35 35 35 35 36 37 37 38 40 40 40 42 43 44 45 45 44 40 36 36 35 37 39 40 39 38 37 36 36 36 36 36 35 36 36 38 39 40 41 42 43 43 44 45 46 46 46 47 47 47 48 48 48 49 51 53 54 53 51 53 54 52 54 58 59 60 60 58 61 65 67 68 69 70 69 67 65
33 33 33 33 33 34 35 36 36 36 36 35 36 37 37 37 37 36 35 37 39 40 41 43 43 44 44 43 40 38 37 37 39 41 42 42 42 41 40 39 38 38 38 38 38 38 39 40 40 41 42 42 43 44 44 44 45 45 46 47 48 48 49 50 51 52 53 55 55 52 54 55 53 55 58 59 60 60 60 64 67 67 67 68 68 67 66 66
34 35 35 35 35 35 36 37 38 38 37 37 37 38 38 38 38 37 35 36 39 41 42 42 43 44 45 43 42 40 39 39 41 42 43 44 43 43 43 42 42 41 40 41 40 40 41 41 42 42 42 42 43 43 44 45 46 47 48 49 49 50 50 51 51 51 52 55 55 52 53 56 55 55 57 59 61 62 65 68 68 67 67 67 67 67 67 68
36 36 37 37 37 37 38 39 39 40 39 39 39 39 40 40 40 41 40 39 39 42 43 44 44 45 44 44 43 43 44 43 42 43 44 45 45 46 45 45 45 44 43 43 42 42 43 43 43 43 43 44 44 45 46 47 48 48 49 50 51 51 51 51 51 50 51 54 55 54 54 58 58 56 59 63 65 67 68 68 67 66 68 69 68 67 68 69
37 37 38 39 39 39 39 40 41 41 41 41 41 41 41 41 41 42 43 41 41 43 44 45 46 45 45 45 45 47 48 47 46 46 46 46 47 48 47 47 47 46 46 45 44 44 45 45 45 45 45 46 46 47 48 48 48 48 49 50 51 51 51 52 52 52 53 55 57 57 57 62 62 60 63 68 68 68 69 68 68 70 72 72 70 69 70 71
38 39 40 40 40 41 41 41 42 42 43 43 43 43 42 43 43 43 43 43 42 43 45 45 45 45 46 47 47 49 50 49 49 50 50 50 50 49 49 49 48 48 48 47 47 46 46 46 45 45 45 46 47 48 48 48 48 48 49 50 51 50 51 53 53 53 54 57 59 60 61 65 66 64 64 67 69 71 71 72 74 76 76 73 72 73 74 75
40 40 41 42 42 42 42 43 43 44 44 44 44 44 44 44 44 44 44 43 43 44 45 45 46 46 47 48 48 50 51 51 51 51 52 53 53 53 52 51 51 51 50 50 49 48 47 46 45 45 45 47 48 48 48 49 49 49 49 50 52 52 52 53 55 56 57 60 62 61 63 67 68 66 63 65 70 73 73 75 76 76 74 73 73 74 74 75
41 42 42 43 43 43 44 44 44 45 45 45 46 46 45 46 46 45 46 45 44 45 46 46 47 48 48 49 49 50 51 53 52 52 53 55 55 56 56 55 54 54 54 53 52 50 49 48 47 47 48 49 49 49 50 50 51 52 52 53 53 53 54 55 57 59 59 62 63 62 65 68 67 66 65 68 72 73 74 74 74 73 72 73 74 73 74 76
43 43 44 44 44 44 45 45 45 46 46 46 46 46 46 47 47 47 47 47 46 46 47 48 49 49 49 50 50 51 52 54 53 52 53 55 57 57 58 57 57 57 56 55 53 51 50 49 48 49 50 51 51 51 51 52 53 54 54 55 55 55 56 57 59 60 61 65 65 62 63 67 67 68 70 72 72 73 73 72 72 73 73 74 73 73 76 78
44 45 45 45 45 45 45 45 46 46 46 47 47 47 47 47 47 47 47 48 49 48 48 49 50 50 50 51 51 52 54 54 55 55 55 57 58 59 59 59 58 58 57 56 55 52 51 50 50 51 52 52 53 53 53 53 55 56 57 57 57 58 59 60 60 60 62 65 65 62 63 66 69 70 73 74 73 73 74 73 74 75 75 74 73 75 78 80
46 46 46 46 46 46 46 46 46 46 47 48 48 48 48 48 48 47 46 48 50 50 50 51 51 51 51 52 52 53 55 56 57 57 57 58 59 60 61 60 59 59 57 56 55 54 54 54 54 55 55 55 55 54 54 55 56 57 59 59 59 59 59 61 61 60 62 64 63 63 66 69 72 72 72 75 75 75 75 76 77 77 76 75 75 77 80 83
47 47 47 47 47 46 46 46 47 47 48 48 49 49 49 49 49 48 47 49 51 52 52 52 52 52 53 53 53 54 56 57 58 58 58 59 60 61 61 60 59 58 58 57 56 56 57 57 58 58 58 58 57 57 57 57 58 59 60 60 61 61 60 61 59 58 62 64 64 67 69 72 74 74 73 75 76 77 77 78 79 77 76 75 77 79 82 84
48 48 48 48 47 47 47 48 47 48 49 49 50 50 50 50 49 48 48 49 52 53 53 53 53 53 54 54 54 55 57 58 59 60 60 60 61 61 62 61 59 59 60 59 59 59 59 60 60 60 61 60 59 59 59 59 59 60 62 62 63 63 62 61 60 60 64 67 68 68 70 72 73 74 75 76 77 77 78 80 79 78 76 76 78 81 83 85
49 49 48 48 48 48 48 49 49 49 50 51 51 51 51 51 50 48 48 50 53 54 54 54 55 55 55 55 56 57 59 60 60 61 62 62 62 61 61 61 60 61 62 61 61 61 61 62 62 62 62 62 61 61 60 61 61 62 63 63 63 62 63 63 63 65 67 69 70 69 70 72 71 72 75 77 77 77 79 81 80 78 78 78 80 82 84 86
49 49 48 48 48 49 50 50 50 51 51 52 52 52 51 52 50 49 49 51 53 54 55 55 56 55 56 56 57 58 60 61 62 63 63 63 63 62 61 60 60 62 63 63 63 63 63 63 63 63 63 63 63 62 62 61 62 63 63 62 61 61 63 65 66 68 69 71 73 71 71 72 70 71 74 75 75 77 80 81 78 77 79 81 82 84 85 87
49 49 49 49 50 51 51 51 52 53 54 54 54 53 53 52 51 50 51 52 53 54 55 55 56 56 56 57 58 59 62 63 63 63 64 64 64 63 61 60 61 62 62 62 63 63 64 64 64 64 63 62 63 63 62 62 62 63 63 62 61 60 62 65 67 70 72 73 73 71 72 72 70 71 73 72 74 78 80 78 75 76 78 81 83 85 86 88
50 50 50 51 52 52 52 53 54 55 56 56 56 55 53 52 52 51 52 53 54 54 55 56 56 56 57 58 59 60 62 64 64 64 64 64 65 64 62 61 62 61 61 62 64 64 65 65 65 64 63 62 62 62 62 62 62 64 64 62 61 61 63 65 69 71 73 74 74 71 72 73 72 73 72 70 73 78 77 75 73 75 78 80 83 85 87 89
51 52 52 53 53 53 54 55 56 57 57 58 58 57 54 52 52 52 53 54 54 55 56 56 56 57 59 60 60 61 62 63 63 64 64 64 65 64 61 62 63 61 61 63 66 66 65 65 65 64 63 62 62 62 62 62 63 63 63 62 62 63 65 67 70 72 73 75 74 72 72 72 73 75 71 69 75 77 74 72 72 74 76 78 81 83 86 88
53 54 54 54 54 54 55 56 58 59 59 60 60 57 54 53 52 52 53 54 55 56 56 57 57 58 61 62 62 62 63 63 63 64 64 64 65 63 62 62 62 61 62 65 67 67 66 66 65 64 63 62 62 62 62 62 62 63 63 63 63 65 67 69 72 73 73 76 75 73 72 71 72 74 70 71 77 75 71 70 70 72 75 77 79 82 85 87
55 55 56 56 56 56 57 58 59 60 61 62 61 57 55 54 53 53 54 55 55 56 56 56 58 60 62 63 64 63 63 64 64 64 64 64 64 63 62 63 63 64 66 68 69 68 67 66 65 64 64 63 62 62 62 63 63 64 64 64 64 65 67 71 73 73 73 76 77 74 72 71 71 70 71 75 77 74 71 70 70 73 76 77 79 82 86 88
57 58 58 57 57 58 59 61 61 62 63 63 60 57 56 55 54 54 55 56 56 56 56 57 59 62 63 63 64 64 65 65 65 65 66 65 65 63 63 64 66 68 69 69 70 68 67 66 66 65 65 64 63 62 63 63 64 65 65 65 65 66 68 71 73 74 74 75 78 77 74 73 70 68 72 76 75 73 72 71 72 75 77 78 81 84 87 89
59 61 61 58 58 60 62 63 64 64 64 62 60 58 57 56 56 56 57 57 57 57 58 60 61 63 64 64 64 64 66 66 66 68 68 67 66 65 64 65 68 69 69 69 68 68 67 67 66 66 66 65 63 62 62 63 64 65 65 66 66 67 70 72 73 74 74 75 77 78 78 75 68 67 72 74 72 72 72 73 75 76 77 79 82 85 88 90
62 64 63 60 60 63 64 65 65 65 64 62 60 59 58 58 58 58 58 58 58 59 61 62 63 64 65 65 65 66 67 68 68 70 70 68 67 67 66 68 70 69 68 68 68 68 67 67 67 67 66 65 64 63 62 62 63 64 65 66 66 67 70 73 75 75 75 78 77 76 80 76 67 68 71 71 72 72 72 75 77 77 77 79 82 86 88 89
65 66 65 63 64 65 67 68 67 66 64 62 61 60 60 61 60 60 59 59 60 61 63 64 65 66 67 66 67 67 69 70 70 72 71 69 68 68 68 71 72 70 68 68 68 68 67 67 67 67 66 65 63 62 62 62 63 64 66 66 67 68 71 74 77 77 77 79 76 75 80 77 69 69 69 68 71 71 72 77 78 77 78 80 83 86 88 88
67 67 67 67 67 67 69 70 68 66 65 63 63 62 63 63 63 62 61 61 62 63 65 66 67 68 69 68 69 69 71 73 72 71 71 69 68 69 72 74 75 72 69 69 69 68 68 68 68 67 66 64 62 62 62 62 63 65 66 67 68 70 73 76 77 78 78 77 75 76 80 77 72 70 67 67 70 70 72 77 78 79 80 81 84 87 88 89
69 69 69 70 70 70 70 70 69 67 66 65 64 64 65 65 65 63 62 63 64 65 67 68 69 70 71 71 71 71 72 73 72 70 69 69 70 72 76 78 76 73 70 70 70 69 68 69 68 67 66 64 62 61 62 63 64 65 66 67 68 71 76 78 78 78 78 76 75 78 78 76 72 68 66 68 69 70 73 76 77 79 81 83 85 87 88 89
72 72 72 72 72 72 71 70 70 69 68 66 66 67 67 67 66 65 65 65 66 67 68 70 71 72 73 73 73 72 72 72 71 69 69 70 73 76 79 79 75 72 70 70 70 70 69 69 68 66 65 63 61 61 62 63 64 65 65 66 68 71 76 78 78 78 76 75 76 76 76 75 71 66 66 68 69 70 73 75 75 78 81 83 85 87 89 88
74 75 75 74 74 73 72 71 71 71 69 68 69 70 69 70 69 68 68 68 68 69 70 72 73 73 74 74 73 71 71 70 69 70 71 73 76 77 78 76 73 71 70 70 70 70 69 69 68 66 64 62 60 59 60 61 63 64 64 66 68 72 75 77 77 75 73 75 76 73 73 75 70 65 66 67 68 72 74 74 75 78 82 83 84 87 89 88
76 77 76 75 74 74 73 72 72 71 70 70 73 74 74 74 73 71 71 71 71 71 73 74 74 74 75 74 72 72 70 69 70 71 73 74 75 75 75 74 71 70 69 69 69 68 68 69 68 65 62 60 59 58 58 59 61 62 63 64 68 72 75 76 75 73 72 76 76 70 71 73 68 65 66 67 69 73 74 73 75 80 83 84 85 88 88 86
78 77 76 75 76 75 74 73 72 72 72 74 76 78 78 77 75 74 75 75 75 75 76 76 75 75 76 74 73 72 69 69 72 73 72 73 74 74 73 71 69 68 67 67 66 66 68 68 66 62 59 58 58 56 57 59 61 62 63 63 66 71 73 74 73 72 73 75 74 71 70 68 65 64 65 66 71 75 74 73 75 80 84 84 85 88 88 86
79 78 77 76 75 74 74 74 74 76 76 77 79 80 80 79 78 78 78 77 78 78 78 78 78 77 76 74 73 72 69 71 72 72 72 74 74 73 70 68 67 67 66 65 65 65 67 65 63 60 57 56 57 56 56 59 62 64 64 63 66 69 70 70 71 72 73 73 72 72 70 65 62 63 64 66 71 74 73 72 75 80 83 84 86 89 88 86
78 77 75 76 76 76 76 76 77 78 78 79 82 83 82 81 81 81 80 80 81 80 80 82 81 78 76 76 75 71 69 71 72 72 74 75 74 72 68 66 67 67 66 65 64 65 65 62 60 57 56 56 56 55 56 59 63 65 64 63 66 68 68 67 69 71 71 70 69 70 68 63 60 62 64 66 71 73 72 73 75 80 83 84 87 89 88 86
77 76 76 77 78 77 77 78 79 80 82 83 84 83 81 81 81 82 83 82 81 82 83 83 82 80 79 78 73 69 69 71 73 74 75 75 74 71 68 67 68 68 67 66 65 64 62 59 57 56 56 57 56 56 57 61 65 66 64 63 65 67 66 65 67 70 69 68 68 67 64 61 60 61 63 65 69 71 72 73 76 80 83 84 86 88 87 84
77 77 76 77 78 79 80 81 82 84 83 81 80 78 77 77 77 80 82 80 79 81 82 82 81 80 78 73 69 68 71 72 74 75 77 77 74 71 70 71 71 70 68 66 64 62 59 58 56 56 58 59 56 57 59 63 66 66 63 63 64 65 65 65 65 67 66 65 66 65 62 60 60 60 62 65 67 69 70 73 77 80 83 84 85 86 85 82
Wind_Direction
286 300 309 316 324 330 334 337 340 342 343 341 340 340 343 346 348 349 349 349 350 351 351 351 353 354 354 352 349 346 345 346 349 352 353 347 337 327 322 321 320 318 313 312 311 311 311 310 310 310 310 309 312 317 319 321 323 325 326 328 332 330 330 332 333 333 334 336 338 343 348 349 347 342 338 327 327 336 332 327 324 318 316 314 312 312 313 314
286 298 306 313 319 324 328 333 336 339 339 338 337 338 342 345 346 346 346 347 348 348 348 349 351 353 353 352 350 346 344 346 347 349 351 348 342 330 321 317 314 312 307 305 304 304 304 304 304 304 304 305 309 314 316 319 319 321 323 326 329 328 328 330 329 329 331 333 336 342 348 348 345 341 336 328 329 335 331 324 321 316 314 313 314 315 315 316
288 297 304 309 314 318 323 329 333 335 335 334 334 337 340 343 344 344 344 345 345 345 345 346 349 351 352 352 351 346 343 345 346 346 348 348 345 336 325 316 307 303 300 299 299 298 298 298 299 300 301 305 310 313 315 316 315 318 322 324 326 326 326 327 326 327 328 330 334 341 347 346 344 340 334 333 333 332 328 324 319 316 313 311 312 315 316 316
290 297 303 306 309 313 319 326 329 330 330 330 332 335 337 340 341 341 341 342 343 343 342 345 347 349 350 351 351 347 343 344 345 345 346 346 345 339 328 317 306 299 296 295 296 296 296 296 297 298 301 306 309 311 312 313 314 317 320 321 324 324 324 324 323 324 325 328 332 338 344 344 343 337 333 336 335 329 325 322 320 318 315 313 314 316 317 317
293 298 302 303 305 308 316 322 326 327 326 328 330 332 335 337 338 339 339 341 342 340 340 343 345 346 348 349 349 348 345 343 344 345 344 344 343 338 330 320 309 302 297 295 294 295 295 296 297 299 302 304 305 307 309 311 313 315 318 320 322 322 321 321 321 322 324 327 330 336 340 342 341 334 333 336 333 327 324 321 320 318 316 316 318 319 319 319
295 299 301 301 302 306 313 320 323 324 324 325 327 330 332 334 335 336 338 340 341 339 338 341 342 344 346 346 347 347 346 343 341 343 343 342 340 336 331 325 316 307 302 298 296 296 297 298 299 300 300 301 301 304 307 310 312 313 316 319 320 320 319 320 320 320 323 326 329 334 337 340 339 332 334 335 329 325 322 321 320 318 317 318 320 321 320 320
296 299 300 300 300 304 311 318 321 322 322 323 325 327 330 332 333 335 337 339 339 338 337 339 341 342 343 344 345 345 344 342 340 340 340 339 337 334 331 328 323 316 309 303 300 299 298 298 298 298 299 300 301 304 307 309 310 313 316 317 318 319 318 318 319 320 323 326 329 332 335 338 337 332 333 333 328 324 321 321 320 318 317 319 321 321 320 320
297 298 299 298 300 303 309 316 319 320 320 321 323 325 327 330 332 334 337 338 338 337 337 338 339 340 341 342 344 344 342 341 339 337 336 335 333 331 329 327 324 319 313 307 303 300 299 298 298 299 299 301 303 304 307 308 310 312 314 316 316 317 317 317 318 320 323 326 328 331 333 336 335 332 333 331 326 322 319 320 320 318 319 320 321 320 320 319
295 296 296 297 299 302 308 313 316 318 319 320 321 324 326 329 331 333 336 337 336 336 337 338 339 339 339 341 342 342 340 338 336 335 333 332 330 327 326 326 324 320 315 310 306 303 301 300 300 301 301 303 304 304 306 307 309 312 313 315 316 315 316 317 319 321 323 326 328 330 333 336 334 333 332 330 324 319 318 320 319 318 319 320 320 319 319 318
293 294 295 297 299 302 307 311 315 317 318 319 320 322 325 328 330 332 335 335 335 336 337 338 338 338 339 340 340 340 339 336 333 332 331 330 328 326 324 325 324 321 318 314 311 309 307 305 304 303 304 304 304 305 306 308 310 311 312 314 314 314 315 317 319 321 322 325 327 330 333 335 334 333 331 327 322 318 319 320 319 318 320 320 319 319 318 317
291 292 294 296 299 302 306 310 314 316 316 317 319 322 325 327 329 331 334 334 334 335 337 337 337 337 339 339 339 338 337 334 331 330 330 328 326 324 323 324 324 322 319 316 314 311 309 307 306 305 305 305 305 305 306 308 309 310 311 312 312 313 315 317 318 319 321 323 325 327 330 333 334 331 328 324 321 318 320 321 319 319 319 318 317 316 316 315
290 291 294 296 299 302 306 310 312 314 315 316 318 321 324 325 327 329 332 332 333 335 335 335 336 338 338 338 337 337 336 334 331 329 329 328 326 324 323 323 322 321 318 316 313 310 308 308 307 306 305 305 305 305 305 306 307 307 309 310 312 315 316 316 316 317 319 321 324 324 326 331 333 328 324 321 320 319 319 320 319 319 318 317 316 314 314 314
290 292 294 296 299 302 305 308 310 312 313 315 317 320 322 324 325 328 330 330 332 334 333 334 336 337 337 337 337 336 336 334 331 330 329 328 327 324 322 321 320 319 316 314 312 309 308 307 306 305 304 303 303 303 304 304 304 306 307 309 312 315 316 316 315 316 318 320 323 323 323 328 331 327 322 319 318 318 319 320 319 319 318 317 315 314 315 315
290 292 294 296 298 301 304 306 308 310 312 313 316 318 320 322 323 326 327 328 330 332 332 334 336 336 336 336 336 336 336 335 334 332 331 328 327 325 323 320 318 317 315 312 310 308 306 305 305 304 302 302 302 301 302 302 304 305 307 309 311 313 316 315 314 314 316 319 323 323 322 326 330 326 321 318 317 318 318 319 319 320 319 317 316 316 316 317
289 291 293 295 297 299 302 303 305 308 309 312 314 316 319 321 322 324 325 326 328 330 332 334 335 335 335 336 336 336 335 335 336 334 331 329 327 326 323 320 317 315 313 310 308 306 305 304 303 302 301 301 301 301 302 303 306 307 307 309 311 312 313 313 313 313 314 317 321 322 321 324 328 324 320 317 317 318 318 319 320 320 318 316 316 317 318 318
288 289 291 294 296 298 300 301 303 305 308 310 312 315 317 319 321 322 323 324 325 328 332 333 333 333 335 336 336 335 333 333 334 334 333 332 329 327 324 321 317 313 310 308 306 304 303 302 302 301 301 301 302 303 304 305 307 307 307 308 310 310 311 311 311 312 314 315 319 320 319 323 326 324 319 317 317 318 317 319 321 319 317 316 317 318 318 317
286 288 290 293 295 297 298 300 301 303 306 308 311 314 316 318 319 320 321 320 323 328 331 331 330 331 334 336 334 332 330 329 331 334 335 334 331 329 326 323 318 314 309 305 303 301 301 301 302 302 303 304 305 306 306 306 307 307 306 306 308 308 309 309 310 311 313 315 318 320 319 321 325 323 318 317 317 317 318 320 320 318 317 318 318 317 316 316
285 287 289 291 293 295 296 298 299 302 305 307 310 312 314 316 317 318 318 319 323 327 327 327 328 331 333 333 331 329 328 328 330 332 334 334 332 330 328 325 322 318 313 309 306 304 303 304 305 306 307 308 308 308 308 308 308 307 305 305 307 307 308 309 310 311 312 315 318 320 319 320 323 321 317 316 317 317 319 321 319 318 319 319 318 317 316 315
284 286 288 289 291 293 294 296 298 300 303 306 308 310 312 314 315 317 319 320 321 322 321 323 325 328 330 330 329 327 326 327 330 332 332 333 332 332 330 326 324 322 319 316 313 311 309 309 310 310 311 311 310 310 309 309 309 308 307 307 307 307 308 310 312 312 313 314 317 318 317 318 322 320 316 317 317 318 320 320 318 319 319 318 316 315 314 313
283 285 287 288 290 291 293 294 296 298 301 304 306 308 311 312 313 315 315 314 315 316 318 321 323 325 327 328 328 327 326 328 332 332 332 332 331 332 332 330 326 323 321 319 318 317 314 314 314 314 314 313 312 312 311 312 311 311 310 309 309 309 309 311 312 313 313 313 315 316 315 315 318 318 317 318 317 318 320 319 319 319 317 316 314 314 313 311
282 284 285 287 289 290 292 293 295 297 299 302 304 306 308 309 309 309 309 309 312 315 318 320 322 324 325 327 327 326 326 328 331 331 331 331 330 330 331 331 328 325 321 319 318 318 316 316 317 317 316 315 315 314 314 315 314 313 311 310 310 310 311 312 313 314 313 313 313 313 312 312 315 318 318 318 319 320 320 319 319 318 316 315 313 312 311 310
281 283 285 286 288 290 291 293 294 296 299 301 303 305 306 307 309 309 311 312 314 316 318 320 320 322 324 325 326 326 326 327 329 330 330 330 330 330 329 329 329 327 324 320 317 316 315 315 315 316 316 316 316 316 316 316 315 313 312 311 311 312 312 312 313 314 314 313 312 311 310 310 313 318 319 318 319 320 320 319 319 317 316 314 312 311 311 310
281 283 284 286 288 289 291 293 295 296 298 301 302 304 306 307 308 310 311 313 316 317 317 318 319 320 322 323 326 326 325 325 327 329 330 330 330 329 328 328 328 328 327 323 320 317 315 314 314 314 314 314 315 315 315 315 315 315 314 314 315 315 315 314 315 315 314 314 312 311 312 311 313 318 319 319 319 320 320 320 319 318 317 314 313 313 312 313
281 283 284 286 287 289 291 293 294 296 298 300 302 304 305 306 308 310 311 313 316 316 316 316 316 319 321 323 325 325 325 323 324 327 330 330 330 329 328 327 326 326 326 325 323 319 316 314 314 313 312 312 313 314 316 317 318 319 318 318 318 318 318 317 316 316 315 313 311 312 312 312 316 320 321 321 320 321 322 322 321 319 317 315 315 314 314 316
281 282 284 285 287 289 291 292 294 296 298 300 301 303 304 306 308 310 311 313 315 314 314 314 315 318 320 322 324 324 324 322 321 325 328 328 329 329 328 327 326 326 326 325 323 321 317 314 313 311 311 311 314 316 318 319 320 320 320 319 319 319 318 317 317 316 315 313 312 315 314 314 319 322 323 322 321 322 322 322 320 318 315 315 314 314 316 317
280 282 283 285 286 288 289 291 293 295 297 299 301 302 304 306 308 310 310 312 313 313 313 313 314 317 319 321 322 323 323 322 320 322 324 326 327 328 328 328 327 327 327 325 323 321 318 316 313 311 312 313 316 318 319 321 320 319 320 319 318 319 318 318 317 316 316 314 315 320 318 316 319 321 322 323 322 322 321 320 317 314 314 314 314 315 316 316
279 281 282 284 285 287 288 290 292 294 296 298 300 302 303 305 307 309 309 310 311 312 311 312 313 315 318 320 321 321 322 321 319 319 320 323 325 326 326 328 328 328 327 325 322 321 320 318 316 314 314 316 318 320 321 321 320 319 320 318 318 319 319 318 318 317 318 316 317 320 318 317 320 322 323 323 323 322 320 318 315 314 315 315 315 317 317 316
279 280 281 283 284 286 287 289 291 293 295 297 299 300 302 303 305 307 308 309 310 310 310 310 311 313 316 318 320 321 321 321 320 319 319 320 323 324 325 327 328 328 327 324 322 320 320 320 320 320 319 320 320 321 321 321 320 320 319 318 319 319 319 317 317 318 318 316 317 318 317 318 321 323 324 323 323 322 320 317 315 316 317 317 318 318 317 317
278 279 280 282 283 285 286 288 289 292 294 296 297 299 300 302 303 305 307 307 308 309 309 309 310 311 314 317 319 320 320 321 321 319 318 318 320 322 324 325 327 328 327 324 322 320 320 321 322 323 323 323 322 321 321 320 319 319 318 318 318 317 317 316 317 319 317 316 317 317 318 321 322 323 323 323 323 322 320 318 317 318 319 319 319 319 319 319
278 279 280 282 283 284 286 287 289 291 293 294 296 297 298 300 301 303 305 307 307 307 308 308 309 309 312 315 318 319 319 319 320 319 317 317 318 320 322 323 326 327 326 324 322 321 321 321 323 324 324 323 321 321 320 319 318 318 317 317 316 316 316 316 318 318 316 315 316 318 321 322 322 323 323 322 322 321 319 317 317 319 320 320 320 319 320 319
277 278 280 281 282 283 284 286 288 290 291 293 294 295 296 297 298 301 304 306 305 306 307 307 307 309 311 313 316 316 316 316 317 317 316 316 316 318 320 322 323 324 323 323 321 320 320 320 322 322 321 321 320 319 319 318 318 317 316 316 315 315 315 315 316 316 314 315 317 320 322 322 323 324 323 323 323 321 318 317 319 320 319 320 320 320 320 320
277 278 279 280 281 282 283 285 287 289 290 291 292 293 294 294 297 300 303 303 303 304 306 306 306 308 309 311 314 314 314 314 315 315 316 316 316 316 318 320 321 321 321 321 320 319 318 319 320 320 319 319 318 318 318 317 317 316 315 315 315 315 314 314 315 314 314 315 317 321 322 321 322 322 322 324 322 320 318 318 320 321 320 320 320 320 320 320
276 277 278 279 280 281 282 284 286 288 289 289 290 291 291 293 297 300 301 301 302 303 304 305 305 307 308 310 313 313 313 313 313 314 314 314 314 314 316 318 319 319 320 320 319 318 317 318 319 318 317 317 317 317 317 316 315 314 314 314 314 314 314 314 315 313 313 315 317 321 321 320 321 320 322 323 320 318 317 319 321 321 320 320 320 320 321 321
275 276 277 278 279 280 282 284 286 287 287 288 289 289 290 293 297 299 299 300 300 301 302 303 304 305 307 309 311 313 313 312 312 313 312 313 313 313 316 317 317 317 318 318 318 317 316 317 318 317 316 316 316 316 315 314 313 313 313 312 313 313 314 315 315 313 313 314 317 320 319 319 320 320 321 321 318 316 317 319 321 320 319 320 320 320 321 322
273 274 276 277 278 280 282 284 285 286 287 287 287 288 290 294 296 297 297 298 299 300 301 301 303 305 307 308 310 312 312 311 312 312 312 312 312 313 316 316 315 316 317 318 318 317 316 316 316 315 315 316 316 315 315 314 312 312 312 312 312 313 313 314 314 313 314 314 316 319 319 318 318 318 321 319 315 315 317 319 319 318 319 319 320 321 322 323
272 273 275 276 278 280 282 283 284 285 286 286 286 288 291 294 295 295 296 297 298 300 300 301 303 305 305 307 309 311 310 310 311 312 312 312 312 314 316 314 313 314 314 316 317 316 315 315 315 314 314 315 315 314 314 313 312 312 312 311 312 312 312 313 312 312 313 313 316 319 318 318 317 318 321 318 313 315 317 317 317 317 318 319 320 321 323 323
271 272 274 275 277 279 281 282 283 284 285 285 285 289 292 293 293 294 294 296 297 298 299 301 303 303 304 307 309 310 310 310 311 311 312 312 313 315 316 314 312 312 313 315 316 316 315 314 313 312 313 314 314 312 312 311 311 311 311 311 311 312 312 312 311 311 311 311 315 318 317 317 318 318 318 314 313 315 316 315 316 316 317 318 320 321 323 323
270 272 273 275 277 279 280 281 282 283 283 284 286 290 292 292 292 292 293 294 295 297 299 300 301 302 304 307 308 308 309 310 310 310 311 311 313 314 315 313 311 310 311 312 313 314 313 312 311 311 312 313 312 311 310 311 311 311 311 311 311 311 312 311 310 309 310 311 313 316 316 317 319 319 315 313 313 314 314 314 316 316 318 320 321 323 324 325
270 271 272 273 276 278 279 279 280 281 282 284 287 290 291 292 291 291 291 293 294 296 298 299 299 301 304 305 306 308 308 308 308 309 309 310 311 312 312 312 311 310 310 310 311 312 311 310 309 310 311 312 311 310 310 311 311 310 310 310 310 311 310 310 309 309 310 310 311 314 315 317 321 318 313 313 314 314 315 316 317 318 320 322 323 324 325 326
269 270 271 273 275 276 277 278 279 280 282 284 287 290 292 291 290 290 290 292 294 296 297 297 298 300 303 304 305 306 306 306 307 307 307 309 310 310 310 312 312 310 309 309 309 309 309 308 308 308 310 312 310 309 309 310 310 310 309 309 310 310 310 308 307 308 309 309 311 312 313 319 322 317 313 314 314 314 316 318 319 320 322 323 324 325 326 326
269 269 271 273 274 275 276 277 278 280 282 284 288 290 290 289 288 289 290 292 294 295 295 297 298 300 301 303 304 305 305 305 305 305 306 307 308 308 309 311 312 310 308 307 307 308 307 307 307 308 310 311 309 309 309 309 309 309 308 309 309 309 309 306 306 308 309 309 311 311 311 319 321 315 313 315 313 315 318 318 319 320 322 323 324 326 327 327
268 270 272 273 273 274 275 276 278 280 282 286 289 289 288 288 288 288 290 292 293 293 294 296 298 299 300 301 302 303 304 304 303 303 305 306 307 308 309 310 311 310 308 306 306 307 306 306 306 307 309 309 308 308 309 309 309 308 308 309 309 308 307 305 306 309 310 310 311 309 311 318 318 314 315 315 313 317 319 318 319 321 323 324 325 327 327 327
269 271 273 273 273 274 275 276 278 281 283 286 287 288 287 287 287 288 290 291 291 292 294 296 297 297 298 299 300 302 304 302 301 302 304 305 306 307 308 309 310 308 307 306 306 306 305 305 305 306 307 307 306 307 308 309 308 308 308 309 308 308 307 306 307 308 309 310 310 309 312 316 316 315 316 314 314 317 318 318 320 322 323 325 326 327 327 328
270 271 272 272 273 274 275 277 280 282 284 286 287 287 286 285 286 288 289 289 290 292 294 295 296 296 296 298 300 302 302 302 301 302 302 304 305 307 308 309 308 307 306 306 306 305 303 303 303 304 304 304 305 306 307 308 307 308 309 309 309 309 307 306 307 307 308 308 308 308 311 314 315 316 315 313 315 318 318 319 321 322 324 325 326 327 327 328
270 271 271 272 273 274 276 279 281 282 284 285 286 286 284 284 285 286 287 288 290 292 293 293 294 295 296 299 300 300 300 301 301 301 302 304 307 308 309 308 307 305 304 304 303 302 301 301 302 303 302 303 304 306 307 307 307 308 310 309 309 308 305 304 305 306 306 306 307 310 311 311 313 314 313 313 315 317 318 320 321 322 323 324 326 327 328 329
270 271 271 273 275 276 278 279 281 282 284 286 285 284 283 283 283 284 286 288 291 292 291 292 293 295 298 299 300 300 300 299 300 302 305 307 308 308 306 304 303 301 301 300 300 299 299 300 301 301 301 302 304 306 306 307 307 308 309 308 307 305 303 303 304 305 305 305 308 311 310 310 314 314 313 314 315 317 319 321 322 322 322 325 327 328 328 329
269 270 272 275 276 277 278 279 281 283 284 284 283 283 283 283 284 286 288 289 290 290 290 292 294 296 299 300 300 300 299 298 302 307 308 307 306 303 301 300 298 297 297 296 297 297 297 299 300 299 300 302 304 305 306 306 306 307 307 307 305 303 302 303 303 304 304 305 308 310 308 310 314 314 313 315 316 318 320 322 322 322 322 326 328 328 329 330
269 271 272 274 275 277 279 280 281 282 282 281 282 283 284 284 286 288 288 289 289 290 291 292 294 297 299 299 299 298 298 300 305 308 305 302 300 299 297 296 295 294 294 294 295 296 297 298 299 298 299 302 303 305 305 305 305 306 307 306 303 301 302 303 303 303 304 306 309 309 309 311 314 313 314 316 317 319 321 323 322 321 323 327 328 328 329 330
269 271 273 274 275 277 278 279 280 280 281 281 282 283 283 285 287 288 288 289 289 290 290 291 294 297 297 297 298 297 298 303 306 303 298 296 295 295 294 294 293 293 293 294 295 295 296 297 297 297 299 301 303 304 304 304 304 305 307 306 302 301 302 302 302 303 304 307 309 308 309 312 313 312 315 318 319 320 321 322 322 323 324 327 328 329 330 330
270 272 273 274 274 276 277 278 279 280 281 281 281 283 285 287 288 288 287 288 288 289 290 292 294 295 295 296 296 296 299 302 300 296 293 292 291 291 292 293 294 293 294 295 295 295 295 295 296 298 299 302 303 303 303 304 304 306 307 305 301 301 302 302 303 303 304 307 308 308 309 311 312 313 316 319 321 320 320 321 323 324 325 327 328 330 331 330
270 271 272 273 274 276 277 278 278 278 279 280 282 285 288 289 289 287 286 287 288 289 290 292 293 293 293 294 294 295 299 299 295 292 290 288 289 290 290 293 295 294 294 295 295 295 295 295 297 299 300 302 302 302 303 304 304 306 307 304 301 302 303 304 304 304 304 305 306 306 308 310 312 314 316 318 319 319 320 322 324 325 326 328 329 330 331 329
269 271 272 272 273 275 276 277 278 278 281 284 286 288 288 288 288 287 287 289 291 291 291 292 292 292 292 292 292 295 297 294 291 289 287 286 288 289 290 293 294 294 294 295 295 294 294 296 298 298 299 301 301 302 304 304 305 308 306 302 302 303 303 305 305 304 304 305 305 307 309 310 312 313 314 316 318 319 322 324 324 325 327 328 330 331 331 329
Height
5922 5922 5921 5921 5921 5920 5919 5919 5918 5917 5916 5915 5914 5913 5912 5911 5909 5907 5905 5903 5902 5900 5899 5897 5895 5892 5890 5888 5885 5883 5882 5880 5879 5877 5875 5874 5873 5872 5872 5871 5871 5870 5869 5869 5868 5867 5867 5867 5866 5865 5864 5864 5863 5862 5861 5859 5858 5857 5855 5853 5851 5848 5845 5843 5840 5838 5837 5835 5834 5832 5831 5829 5827 5824 5821 5819 5817 5815 5812 5810 5808 5804 5802 5800 5798 5798 5796 5795
5921 5921 5920 5920 5920 5919 5918 5918 5917 5916 5915 5914 5913 5912 5911 5910 5908 5907 5905 5903 5901 5899 5898 5896 5894 5892 5890 5887 5885 5882 5880 5879 5877 5876 5874 5873 5871 5870 5870 5869 5869 5868 5868 5867 5867 5866 5865 5865 5864 5864 5863 5862 5862 5861 5859 5858 5856 5855 5853 5851 5850 5847 5844 5841 5839 5836 5834 5832 5830 5829 5827 5826 5824 5822 5819 5816 5813 5812 5809 5806 5803 5799 5796 5795 5795 5795 5793 5792
5919 5919 5919 5919 5919 5918 5917 5917 5915 5915 5914 5913 5912 5911 5910 5909 5907 5906 5904 5902 5900 5899 5898 5896 5894 5891 5889 5887 5884 5882 5879 5878 5876 5874 5873 5871 5870 5869 5868 5867 5867 5866 5866 5865 5865 5864 5863 5863 5862 5862 5861 5861 5860 5859 5858 5856 5854 5853 5851 5850 5848 5845 5842 5840 5837 5834 5832 5829 5827 5825 5824 5822 5821 5819 5815 5813 5811 5808 5806 5803 5799 5796 5792 5790 5790 5790 5789 5787
5918 5918 5918 5918 5918 5917 5916 5915 5914 5913 5913 5912 5911 5910 5909 5908 5906 5905 5903 5901 5900 5898 5897 5895 5893 5891 5888 5886 5884 5881 5879 5877 5875 5874 5872 5870 5869 5867 5866 5866 5865 5864 5864 5863 5863 5862 5861 5860 5860 5860 5859 5858 5858 5857 5855 5854 5852 5851 5849 5847 5845 5843 5840 5837 5835 5832 5829 5827 5824 5822 5821 5818 5817 5815 5812 5810 5808 5804 5801 5798 5795 5791 5789 5788 5787 5785 5784 5783
5917 5917 5917 5917 5916 5916 5915 5914 5913 5912 5911 5910 5910 5909 5908 5907 5905 5904 5902 5900 5899 5897 5896 5894 5892 5890 5887 5885 5883 5881 5878 5876 5875 5873 5871 5869 5868 5866 5865 5864 5863 5863 5862 5862 5861 5860 5860 5858 5858 5857 5857 5856 5855 5854 5853 5852 5850 5848 5847 5845 5843 5840 5837 5835 5832 5829 5826 5824 5822 5819 5818 5816 5813 5810 5808 5806 5804 5801 5797 5794 5790 5786 5784 5784 5783 5781 5779 5778
5915 5915 5915 5915 5914 5914 5913 5912 5912 5911 5910 5909 5908 5908 5907 5905 5904 5903 5901 5899 5898 5896 5894 5892 5890 5888 5886 5884 5882 5880 5878 5875 5873 5872 5870 5869 5867 5865 5864 5863 5862 5861 5860 5860 5859 5858 5858 5857 5856 5855 5855 5854 5853 5851 5850 5849 5848 5846 5845 5843 5841 5838 5835 5833 5830 5826 5824 5821 5819 5817 5814 5813 5810 5806 5804 5802 5799 5796 5792 5788 5785 5782 5780 5779 5779 5777 5775 5774
5914 5914 5914 5913 5913 5912 5911 5911 5910 5909 5908 5907 5906 5906 5905 5904 5903 5901 5899 5897 5896 5894 5892 5891 5889 5886 5884 5882 5880 5878 5876 5874 5872 5870 5868 5867 5866 5864 5863 5862 5861 5860 5859 5858 5857 5856 5855 5854 5854 5853 5852 5851 5850 5849 5848 5847 5845 5844 5842 5840 5838 5836 5833 5830 5828 5824 5821 5819 5816 5814 5811 5809 5807 5803 5801 5799 5795 5791 5787 5783 5780 5777 5776 5776 5775 5773 5771 5769
5912 5912 5912 5911 5911 5910 5909 5909 5908 5907 5906 5905 5904 5903 5903 5902 5901 5899 5897 5896 5894 5893 5891 5889 5887 5885 5883 5880 5878 5876 5874 5872 5870 5868 5866 5865 5864 5863 5862 5860 5859 5858 5857 5856 5855 5854 5853 5852 5851 5851 5850 5849 5848 5847 5845 5844 5843 5842 5840 5838 5835 5834 5831 5828 5825 5822 5819 5816 5814 5811 5807 5805 5804 5800 5798 5795 5791 5786 5783 5779 5776 5774 5773 5772 5771 5769 5767 5765
5911 5910 5910 5910 5909 5908 5908 5907 5906 5905 5904 5903 5903 5901 5901 5900 5899 5897 5896 5894 5892 5891 5889 5887 5885 5883 5881 5879 5876 5874 5872 5870 5869 5867 5865 5863 5862 5861 5860 5859 5857 5856 5855 5854 5852 5851 5851 5850 5849 5848 5847 5847 5845 5844 5843 5841 5840 5839 5838 5836 5833 5830 5828 5826 5823 5819 5816 5814 5812 5809 5805 5801 5799 5796 5794 5791 5787 5782 5778 5775 5772 5770 5770 5769 5766 5764 5762 5760
5909 5909 5908 5908 5907 5907 5906 5905 5904 5903 5902 5901 5901 5900 5899 5898 5897 5896 5894 5893 5891 5889 5886 5885 5883 5881 5879 5876 5874 5872 5871 5869 5867 5865 5862 5861 5859 5858 5858 5856 5855 5854 5853 5851 5850 5849 5848 5847 5846 5846 5845 5844 5843 5841 5840 5839 5838 5836 5834 5833 5830 5828 5826 5822 5819 5816 5813 5811 5809 5806 5802 5799 5796 5792 5789 5786 5781 5776 5773 5771 5768 5766 5765 5764 5762 5760 5757 5755
5907 5907 5906 5906 5906 5905 5904 5903 5902 5901 5900 5899 5898 5898 5897 5896 5895 5894 5892 5891 5889 5887 5884 5883 5881 5879 5877 5874 5872 5870 5869 5867 5864 5862 5860 5858 5857 5856 5855 5854 5853 5851 5850 5849 5847 5846 5845 5844 5844 5843 5842 5841 5840 5838 5837 5836 5835 5833 5831 5829 5827 5825 5823 5819 5815 5812 5810 5808 5806 5803 5800 5798 5796 5790 5784 5780 5776 5771 5768 5766 5763 5762 5761 5759 5757 5755 5752 5749
5905 5905 5904 5904 5904 5903 5902 5901 5900 5899 5898 5897 5896 5895 5894 5894 5892 5891 5890 5889 5887 5885 5883 5881 5879 5877 5874 5872 5870 5868 5866 5864 5862 5860 5858 5856 5855 5854 5853 5852 5851 5849 5848 5846 5845 5843 5842 5841 5841 5840 5839 5838 5837 5835 5834 5833 5831 5830 5828 5826 5823 5820 5819 5816 5812 5809 5807 5804 5802 5800 5796 5795 5794 5789 5780 5774 5771 5766 5763 5762 5758 5758 5757 5755 5752 5749 5746 5744
5903 5903 5902 5902 5902 5901 5900 5899 5898 5897 5896 5895 5894 5893 5892 5891 5890 5889 5888 5886 5885 5883 5881 5879 5877 5875 5873 5870 5868 5865 5864 5862 5860 5858 5855 5854 5852 5851 5851 5850 5848 5847 5845 5843 5842 5841 5839 5838 5838 5837 5836 5835 5833 5832 5831 5829 5828 5826 5824 5823 5820 5817 5815 5813 5810 5805 5803 5801 5798 5795 5792 5790 5790 5785 5777 5771 5767 5762 5758 5756 5754 5753 5752 5749 5746 5743 5740 5737
5900 5900 5900 5900 5899 5899 5898 5897 5896 5895 5894 5893 5892 5891 5890 5889 5888 5887 5886 5884 5883 5881 5879 5877 5875 5873 5871 5869 5866 5864 5862 5860 5858 5855 5853 5851 5850 5849 5848 5847 5846 5845 5843 5841 5840 5838 5837 5836 5835 5834 5832 5831 5830 5829 5828 5826 5825 5823 5820 5819 5817 5814 5812 5809 5807 5803 5800 5797 5794 5790 5785 5786 5785 5780 5773 5766 5763 5758 5753 5751 5749 5747 5746 5742 5739 5736 5734 5731
5898 5898 5898 5897 5897 5896 5896 5895 5894 5893 5892 5891 5890 5889 5888 5886 5885 5884 5883 5881 5880 5879 5877 5875 5873 5871 5869 5867 5865 5862 5860 5858 5856 5853 5851 5849 5848 5846 5845 5844 5843 5842 5841 5839 5837 5836 5834 5833 5832 5831 5829 5828 5827 5825 5824 5822 5821 5819 5816 5814 5812 5811 5809 5806 5803 5801 5798 5795 5792 5786 5779 5779 5780 5776 5770 5763 5759 5754 5747 5746 5745 5742 5739 5735 5733 5730 5727 5724
5895 5895 5895 5895 5894 5893 5893 5892 5891 5891 5890 5889 5888 5886 5885 5884 5883 5882 5880 5879 5878 5877 5875 5873 5871 5869 5867 5865 5862 5860 5858 5856 5854 5852 5849 5847 5845 5844 5842 5841 5840 5839 5838 5836 5835 5833 5831 5831 5829 5827 5826 5824 5823 5821 5820 5818 5817 5815 5812 5810 5808 5806 5805 5803 5800 5797 5795 5791 5789 5783 5776 5774 5773 5769 5764 5759 5756 5751 5743 5740 5739 5736 5733 5729 5727 5724 5721 5717
5892 5892 5892 5892 5891 5891 5890 5889 5889 5888 5887 5886 5885 5884 5883 5882 5880 5879 5878 5876 5875 5874 5872 5870 5869 5867 5865 5862 5861 5859 5857 5855 5853 5850 5848 5845 5843 5842 5840 5839 5837 5836 5835 5833 5832 5830 5828 5827 5826 5824 5822 5820 5818 5816 5815 5813 5812 5811 5808 5806 5804 5801 5800 5799 5796 5793 5791 5787 5784 5777 5769 5769 5768 5763 5758 5755 5751 5747 5740 5737 5733 5728 5726 5723 5720 5716 5713 5710
5889 5889 5889 5889 5888 5888 5887 5886 5886 5885 5884 5883 5882 5882 5880 5879 5878 5877 5875 5873 5872 5871 5870 5868 5866 5864 5862 5861 5860 5858 5856 5854 5851 5848 5846 5843 5841 5839 5837 5836 5834 5833 5832 5830 5828 5827 5824 5822 5820 5819 5817 5815 5813 5811 5809 5808 5807 5805 5803 5801 5799 5796 5794 5793 5790 5788 5785 5782 5779 5772 5762 5760 5762 5757 5753 5751 5747 5741 5737 5734 5729 5723 5719 5715 5712 5708 5705 5702
5885 5885 5886 5886 5885 5884 5884 5883 5882 5882 5881 5880 5879 5878 5877 5876 5875 5874 5872 5870 5870 5870 5868 5866 5864 5863 5861 5860 5858 5856 5854 5851 5848 5845 5843 5840 5838 5836 5835 5832 5831 5829 5828 5826 5824 5822 5820 5818 5816 5815 5813 5811 5810 5808 5806 5804 5802 5800 5798 5795 5793 5790 5788 5786 5785 5782 5779 5777 5774 5769 5759 5754 5756 5751 5747 5746 5741 5735 5733 5729 5724 5719 5715 5709 5704 5701 5697 5694
5882 5882 5882 5882 5882 5881 5880 5879 5879 5878 5878 5877 5876 5875 5874 5874 5873 5873 5871 5868 5868 5868 5866 5864 5862 5860 5859 5857 5855 5853 5851 5848 5845 5842 5839 5836 5834 5832 5831 5829 5827 5826 5824 5822 5821 5819 5816 5814 5813 5811 5809 5807 5805 5803 5801 5799 5797 5795 5792 5790 5787 5785 5783 5780 5779 5776 5773 5772 5769 5765 5756 5750 5752 5748 5743 5740 5735 5730 5727 5722 5718 5714 5710 5705 5699 5694 5690 5686
5879 5878 5878 5878 5878 5878 5877 5876 5875 5874 5874 5873 5872 5872 5871 5871 5870 5871 5871 5869 5866 5865 5863 5861 5859 5857 5855 5853 5851 5849 5847 5844 5842 5839 5836 5834 5831 5828 5827 5825 5824 5823 5821 5819 5817 5815 5813 5810 5809 5807 5805 5803 5801 5798 5796 5794 5791 5789 5787 5784 5782 5780 5778 5775 5773 5770 5766 5764 5763 5760 5754 5746 5746 5745 5739 5735 5728 5723 5720 5714 5712 5708 5703 5699 5693 5688 5684 5679
5875 5875 5875 5875 5875 5874 5873 5872 5871 5870 5870 5869 5868 5868 5867 5867 5866 5865 5865 5865 5862 5860 5858 5856 5854 5853 5851 5849 5847 5845 5842 5840 5839 5837 5834 5831 5828 5825 5823 5822 5820 5818 5817 5815 5813 5812 5809 5807 5805 5803 5800 5798 5795 5793 5790 5788 5786 5784 5781 5778 5776 5774 5772 5770 5768 5765 5760 5757 5754 5753 5750 5741 5739 5739 5733 5727 5721 5715 5713 5709 5705 5701 5695 5690 5685 5681 5677 5672
5872 5872 5871 5871 5871 5870 5869 5869 5867 5866 5866 5865 5864 5864 5863 5862 5862 5861 5860 5859 5859 5856 5854 5851 5849 5848 5846 5845 5843 5840 5837 5835 5833 5832 5831 5828 5825 5823 5820 5818 5816 5814 5813 5811 5809 5807 5805 5802 5800 5798 5795 5792 5790 5788 5785 5783 5781 5778 5775 5771 5769 5767 5765 5763 5761 5759 5754 5751 5746 5743 5742 5733 5730 5734 5727 5718 5715 5709 5706 5702 5697 5692 5685 5679 5676 5672 5668 5663
5868 5868 5867 5867 5867 5866 5866 5865 5864 5863 5862 5861 5860 5859 5859 5858 5857 5857 5855 5855 5855 5852 5850 5848 5845 5844 5842 5840 5839 5836 5833 5830 5828 5827 5825 5823 5822 5820 5817 5815 5813 5811 5809 5807 5805 5803 5800 5797 5795 5792 5790 5787 5784 5782 5780 5777 5774 5771 5768 5765 5763 5761 5758 5755 5753 5752 5748 5744 5740 5736 5734 5725 5716 5722 5722 5712 5706 5702 5696 5691 5685 5679 5673 5668 5665 5662 5657 5652
5864 5864 5864 5863 5863 5862 5861 5860 5859 5859 5857 5856 5856 5855 5854 5854 5853 5852 5851 5851 5850 5848 5846 5844 5841 5840 5837 5835 5834 5832 5829 5826 5824 5822 5820 5818 5816 5814 5813 5811 5808 5806 5805 5803 5801 5798 5795 5792 5790 5787 5784 5782 5779 5776 5773 5770 5767 5764 5762 5759 5756 5754 5752 5749 5745 5744 5742 5737 5732 5727 5725 5721 5710 5708 5712 5707 5699 5694 5688 5682 5677 5671 5665 5662 5658 5654 5650 5645
5860 5860 5860 5859 5859 5858 5857 5856 5855 5855 5853 5852 5851 5850 5850 5849 5849 5848 5847 5846 5846 5844 5841 5839 5837 5835 5834 5832 5830 5828 5826 5822 5820 5819 5817 5814 5812 5809 5807 5805 5803 5801 5799 5797 5794 5792 5789 5786 5784 5781 5778 5775 5772 5770 5767 5764 5760 5757 5755 5752 5750 5748 5746 5744 5739 5735 5733 5728 5724 5719 5713 5713 5710 5703 5701 5699 5693 5688 5683 5678 5672 5667 5662 5658 5653 5648 5644 5638
5856 5856 5856 5855 5855 5854 5853 5852 5851 5851 5849 5848 5847 5846 5846 5845 5844 5843 5842 5841 5841 5839 5837 5835 5833 5831 5829 5828 5826 5824 5822 5819 5817 5816 5813 5810 5808 5804 5802 5800 5798 5795 5793 5790 5788 5786 5783 5780 5778 5775 5772 5769 5765 5763 5760 5757 5753 5751 5749 5746 5744 5742 5739 5736 5733 5728 5725 5719 5717 5715 5707 5703 5702 5696 5689 5687 5684 5679 5676 5671 5665 5660 5656 5651 5645 5639 5633 5626
5851 5851 5851 5851 5850 5850 5849 5848 5847 5846 5845 5844 5843 5842 5841 5841 5840 5839 5838 5836 5836 5835 5832 5830 5828 5827 5825 5823 5822 5820 5817 5815 5812 5810 5808 5805 5803 5800 5797 5795 5793 5791 5788 5785 5782 5781 5778 5775 5772 5769 5766 5762 5759 5756 5754 5751 5747 5744 5742 5739 5736 5735 5732 5729 5727 5723 5718 5713 5709 5707 5703 5698 5693 5688 5679 5674 5674 5670 5665 5659 5653 5650 5646 5641 5635 5629 5621 5613
5847 5847 5846 5846 5846 5845 5845 5844 5843 5842 5841 5840 5839 5838 5837 5836 5836 5835 5835 5833 5831 5829 5828 5826 5824 5822 5821 5819 5818 5816 5813 5810 5807 5805 5802 5800 5798 5795 5792 5790 5789 5786 5783 5781 5778 5775 5773 5770 5767 5763 5759 5756 5752 5749 5747 5744 5741 5738 5735 5732 5730 5728 5727 5723 5720 5717 5711 5707 5704 5698 5694 5689 5685 5683 5675 5665 5662 5660 5654 5647 5642 5639 5635 5629 5624 5617 5609 5602
5842 5842 5842 5842 5841 5841 5840 5839 5838 5838 5836 5835 5834 5833 5833 5832 5831 5831 5831 5829 5826 5824 5823 5821 5819 5818 5816 5815 5814 5812 5808 5806 5804 5801 5798 5795 5793 5791 5788 5785 5784 5781 5778 5776 5773 5770 5767 5764 5761 5757 5753 5750 5746 5743 5741 5737 5734 5732 5728 5725 5723 5720 5719 5717 5714 5712 5705 5699 5698 5693 5685 5677 5672 5671 5670 5663 5655 5649 5643 5638 5635 5631 5626 5619 5613 5606 5598 5591
5837 5837 5837 5837 5836 5836 5835 5834 5834 5833 5832 5830 5829 5828 5828 5827 5827 5827 5827 5825 5821 5819 5819 5817 5815 5813 5812 5810 5809 5807 5804 5802 5800 5797 5793 5791 5788 5786 5783 5781 5779 5775 5772 5770 5767 5764 5762 5758 5755 5752 5748 5744 5740 5737 5735 5731 5727 5724 5721 5718 5715 5712 5710 5709 5708 5706 5700 5691 5689 5688 5680 5671 5664 5657 5654 5652 5646 5639 5632 5628 5625 5621 5616 5611 5604 5597 5590 5582
5832 5832 5832 5832 5831 5831 5830 5830 5829 5828 5827 5826 5824 5824 5823 5822 5823 5824 5823 5821 5817 5815 5814 5812 5810 5808 5807 5806 5805 5802 5799 5797 5795 5792 5788 5786 5784 5781 5779 5777 5774 5770 5766 5764 5761 5758 5756 5753 5750 5747 5743 5739 5734 5730 5728 5724 5720 5716 5713 5709 5706 5703 5701 5701 5700 5697 5694 5686 5680 5680 5676 5669 5663 5654 5647 5641 5633 5628 5622 5617 5615 5610 5603 5599 5593 5586 5580 5572
5826 5827 5826 5826 5826 5826 5825 5825 5824 5823 5822 5820 5819 5819 5818 5817 5818 5819 5818 5816 5813 5810 5809 5807 5804 5804 5802 5800 5799 5797 5793 5791 5789 5786 5783 5780 5778 5776 5775 5773 5770 5766 5762 5758 5755 5752 5749 5747 5745 5740 5737 5734 5729 5724 5720 5718 5714 5709 5706 5703 5699 5696 5692 5693 5692 5688 5687 5684 5676 5672 5667 5663 5660 5653 5647 5639 5627 5618 5615 5610 5606 5601 5593 5586 5581 5575 5569 5563
5821 5821 5821 5821 5821 5820 5820 5820 5819 5818 5816 5815 5814 5813 5813 5814 5814 5814 5812 5811 5808 5806 5804 5802 5799 5798 5797 5795 5794 5791 5787 5783 5782 5780 5776 5774 5771 5769 5769 5767 5764 5760 5757 5753 5749 5746 5743 5740 5738 5733 5730 5728 5724 5719 5715 5711 5707 5703 5700 5697 5694 5691 5685 5684 5683 5677 5676 5677 5676 5671 5660 5654 5652 5648 5644 5637 5625 5614 5609 5606 5601 5595 5588 5579 5572 5566 5559 5552
5815 5816 5816 5815 5815 5815 5815 5814 5813 5811 5809 5809 5807 5807 5809 5810 5809 5808 5807 5805 5802 5801 5799 5797 5795 5793 5792 5790 5789 5787 5783 5778 5775 5773 5770 5768 5764 5763 5763 5761 5757 5754 5750 5747 5743 5740 5737 5734 5731 5727 5723 5721 5717 5713 5709 5705 5700 5697 5694 5690 5688 5686 5681 5678 5674 5669 5665 5665 5670 5670 5660 5649 5642 5639 5638 5630 5621 5614 5607 5604 5598 5589 5583 5575 5565 5558 5551 5544
5809 5810 5810 5809 5809 5809 5809 5808 5806 5804 5803 5802 5800 5801 5805 5806 5804 5802 5800 5798 5797 5794 5792 5791 5790 5788 5785 5784 5783 5781 5777 5773 5770 5767 5764 5761 5758 5757 5757 5754 5751 5748 5744 5741 5737 5734 5730 5728 5725 5721 5718 5715 5711 5707 5704 5700 5695 5692 5688 5684 5682 5679 5675 5671 5666 5662 5657 5654 5658 5661 5656 5650 5639 5629 5627 5620 5611 5610 5605 5600 5595 5587 5579 5573 5564 5555 5548 5540
5803 5803 5804 5803 5803 5803 5803 5801 5799 5797 5796 5794 5793 5797 5801 5800 5799 5797 5794 5793 5791 5789 5787 5785 5784 5782 5779 5777 5776 5774 5771 5767 5764 5761 5757 5754 5752 5751 5751 5747 5744 5742 5739 5735 5731 5728 5724 5720 5718 5714 5712 5710 5706 5701 5697 5695 5690 5686 5683 5679 5675 5672 5668 5664 5657 5655 5652 5646 5649 5654 5649 5647 5639 5625 5618 5612 5605 5604 5602 5596 5592 5584 5576 5570 5562 5553 5545 5536
5796 5797 5797 5797 5797 5797 5796 5794 5792 5790 5789 5787 5788 5793 5795 5794 5793 5791 5788 5787 5786 5784 5783 5780 5777 5776 5774 5771 5769 5767 5764 5760 5758 5755 5751 5748 5746 5745 5744 5741 5737 5734 5732 5728 5725 5722 5719 5714 5710 5708 5705 5703 5701 5695 5690 5688 5685 5680 5677 5674 5670 5665 5660 5655 5648 5645 5645 5639 5638 5645 5644 5641 5638 5623 5609 5603 5597 5595 5594 5590 5584 5577 5569 5561 5554 5546 5536 5526
5790 5789 5789 5790 5791 5790 5788 5786 5785 5783 5782 5782 5784 5787 5788 5788 5787 5784 5782 5781 5780 5778 5777 5775 5772 5769 5769 5766 5763 5761 5758 5755 5752 5749 5745 5743 5741 5739 5737 5735 5732 5727 5725 5722 5718 5716 5713 5708 5704 5701 5699 5696 5694 5691 5685 5681 5679 5674 5670 5668 5665 5661 5655 5650 5642 5635 5635 5630 5626 5629 5633 5634 5632 5618 5603 5596 5589 5584 5581 5578 5573 5566 5558 5549 5541 5533 5524 5513
5783 5781 5781 5785 5785 5782 5780 5778 5777 5776 5776 5777 5779 5781 5781 5781 5779 5777 5775 5774 5774 5772 5770 5769 5767 5764 5762 5760 5758 5756 5752 5749 5747 5743 5740 5738 5735 5733 5731 5728 5726 5721 5717 5715 5712 5709 5707 5703 5698 5695 5693 5690 5687 5685 5681 5675 5671 5668 5664 5661 5659 5655 5649 5643 5639 5634 5628 5623 5619 5615 5616 5625 5624 5607 5596 5589 5580 5575 5571 5565 5560 5555 5547 5540 5532 5524 5514 5504
5775 5772 5774 5779 5777 5774 5772 5770 5770 5770 5771 5772 5775 5775 5774 5773 5772 5770 5769 5768 5767 5766 5763 5762 5761 5758 5755 5753 5752 5750 5746 5744 5741 5736 5733 5732 5729 5726 5724 5721 5718 5715 5711 5708 5706 5703 5700 5696 5693 5689 5687 5683 5678 5677 5676 5671 5666 5661 5657 5655 5652 5648 5643 5634 5630 5631 5624 5615 5613 5607 5603 5615 5617 5600 5590 5583 5571 5566 5563 5555 5549 5545 5539 5533 5526 5517 5507 5496
5766 5765 5768 5770 5768 5767 5764 5762 5763 5765 5766 5768 5769 5768 5766 5765 5764 5763 5763 5762 5760 5758 5757 5756 5755 5751 5749 5747 5745 5743 5741 5737 5734 5730 5726 5725 5723 5719 5717 5714 5711 5708 5705 5701 5699 5697 5693 5690 5687 5683 5680 5677 5672 5669 5668 5665 5661 5656 5652 5649 5646 5642 5637 5629 5622 5623 5619 5609 5603 5597 5594 5602 5604 5593 5585 5576 5566 5561 5556 5547 5540 5536 5531 5524 5516 5508 5499 5490
5759 5759 5761 5760 5759 5759 5756 5754 5757 5759 5760 5762 5762 5761 5758 5756 5755 5756 5756 5756 5753 5751 5750 5749 5748 5744 5742 5741 5739 5737 5734 5728 5725 5724 5720 5718 5717 5713 5709 5707 5703 5700 5698 5694 5692 5690 5686 5683 5681 5678 5674 5670 5667 5664 5661 5658 5655 5650 5647 5644 5641 5635 5627 5623 5618 5614 5613 5607 5596 5587 5587 5592 5590 5583 5576 5567 5560 5557 5549 5540 5532 5525 5520 5515 5507 5500 5491 5481
5751 5751 5751 5750 5750 5750 5749 5749 5751 5753 5754 5755 5754 5753 5750 5748 5748 5749 5749 5748 5746 5744 5743 5742 5740 5737 5734 5734 5732 5731 5727 5720 5717 5716 5714 5710 5709 5706 5701 5698 5695 5692 5689 5686 5684 5682 5679 5675 5673 5672 5668 5664 5662 5658 5654 5652 5648 5645 5642 5637 5634 5628 5617 5612 5611 5606 5605 5605 5596 5584 5582 5586 5583 5575 5569 5559 5552 5550 5543 5534 5525 5516 5510 5506 5500 5493 5484 5475
5742 5741 5741 5741 5741 5742 5743 5744 5745 5745 5746 5747 5746 5744 5741 5739 5741 5742 5741 5740 5740 5738 5736 5734 5732 5730 5727 5727 5725 5722 5719 5714 5709 5708 5707 5704 5700 5697 5693 5689 5687 5684 5681 5679 5677 5674 5672 5668 5666 5665 5661 5658 5656 5653 5648 5645 5641 5638 5636 5631 5627 5622 5611 5604 5602 5599 5596 5595 5593 5583 5574 5577 5580 5572 5563 5556 5547 5543 5538 5530 5521 5512 5505 5501 5495 5487 5478 5468
5732 5730 5730 5733 5734 5735 5736 5738 5737 5737 5740 5739 5735 5734 5733 5731 5732 5734 5733 5732 5733 5731 5728 5725 5725 5723 5720 5720 5717 5713 5710 5706 5702 5700 5699 5695 5691 5688 5685 5682 5680 5677 5674 5671 5669 5667 5664 5662 5659 5657 5654 5651 5649 5646 5642 5639 5635 5632 5629 5625 5620 5613 5606 5599 5594 5592 5588 5583 5587 5583 5567 5563 5569 5564 5556 5550 5541 5535 5532 5524 5515 5506 5499 5497 5490 5480 5470 5461
5722 5721 5724 5725 5726 5727 5728 5730 5731 5731 5733 5729 5723 5724 5724 5722 5723 5726 5726 5725 5724 5723 5718 5717 5717 5715 5713 5711 5708 5704 5701 5697 5695 5693 5690 5687 5684 5680 5677 5675 5673 5670 5667 5664 5662 5659 5656 5655 5654 5650 5647 5644 5640 5638 5635 5631 5629 5627 5624 5621 5615 5605 5599 5594 5588 5584 5580 5574 5577 5579 5566 5556 5557 5553 5547 5542 5532 5526 5523 5517 5508 5497 5491 5488 5481 5471 5463 5454
5713 5714 5718 5718 5717 5719 5721 5722 5723 5722 5722 5719 5715 5714 5714 5713 5716 5717 5716 5716 5715 5713 5710 5708 5709 5708 5705 5703 5699 5695 5693 5689 5688 5687 5683 5679 5677 5672 5670 5668 5665 5663 5660 5657 5655 5652 5648 5648 5647 5643 5641 5637 5633 5631 5629 5624 5621 5620 5619 5617 5612 5601 5594 5590 5582 5576 5572 5568 5566 5565 5560 5555 5550 5544 5541 5535 5525 5518 5513 5509 5502 5491 5483 5479 5473 5463 5455 5446
5705 5706 5710 5710 5710 5712 5712 5713 5713 5711 5711 5709 5706 5704 5704 5706 5709 5709 5707 5706 5705 5704 5701 5698 5700 5700 5696 5693 5690 5686 5685 5682 5680 5679 5675 5671 5669 5665 5662 5661 5658 5656 5653 5650 5648 5645 5641 5640 5639 5636 5635 5631 5626 5624 5622 5617 5613 5612 5612 5611 5606 5598 5592 5586 5578 5570 5565 5563 5559 5553 5549 5549 5544 5537 5534 5529 5519 5510 5505 5501 5495 5485 5476 5472 5465 5456 5447 5438
5698 5700 5703 5700 5700 5704 5704 5703 5703 5701 5702 5700 5694 5695 5699 5700 5701 5699 5697 5697 5695 5694 5693 5690 5690 5690 5686 5683 5682 5679 5679 5676 5671 5670 5667 5663 5660 5658 5655 5653 5650 5648 5646 5643 5641 5638 5634 5633 5632 5628 5627 5626 5621 5617 5615 5611 5606 5603 5604 5604 5598 5592 5588 5583 5574 5565 5559 5558 5554 5547 5542 5542 5538 5532 5528 5523 5515 5505 5498 5494 5488 5478 5470 5464 5457 5449 5440 5430
5691 5693 5694 5688 5688 5695 5695 5692 5693 5691 5690 5689 5686 5690 5694 5691 5692 5690 5685 5687 5687 5684 5684 5682 5680 5678 5676 5674 5674 5672 5671 5667 5662 5661 5660 5655 5652 5650 5647 5646 5643 5640 5638 5635 5633 5631 5628 5626 5625 5621 5618 5619 5617 5611 5609 5605 5598 5595 5597 5596 5591 5585 5582 5579 5571 5561 5554 5552 5549 5543 5539 5536 5532 5527 5524 5521 5515 5506 5496 5487 5480 5473 5465 5457 5450 5442 5433 5423
5684 5684 5686 5679 5676 5684 5685 5681 5682 5679 5678 5682 5683 5685 5684 5681 5682 5681 5674 5676 5679 5675 5673 5673 5670 5667 5666 5665 5666 5665 5661 5657 5654 5653 5651 5647 5645 5643 5640 5638 5635 5632 5630 5627 5625 5623 5621 5618 5617 5614 5610 5611 5610 5605 5602 5597 5591 5589 5588 5586 5584 5580 5575 5572 5567 5557 5549 5546 5542 5537 5534 5530 5527 5523 5519 5518 5515 5507 5495 5483 5473 5465 5457 5450 5443 5435 5426 5417